User: anonymous   Login
Location: Alberta Star Party
(51.6612°N, 112.9089°W)
Time: 12:13:03
(UTC-06:00)
Language:

AO-Echo - Orbit

View from above orbital plane
View from above orbital plane
View from above satellite
View from above satellite

Ground track
Ground track

The orbit data is extracted from the following two-line orbital elements,

1 28375U 04025K   15212.79843898  .00000059  00000-0  30384-4 0  9999
2 28375 098.2939 151.9672 0082330 194.0311 165.8591 14.41682409582912
Epoch (UTC): 31 July 2015 19:09:45
Eccentricity: 0.0082330
inclination: 98.2939°
perigee height: 694 km
apogee height: 811 km
right ascension of ascending node: 151.9672°
argument of perigee: 194.0311°
revolutions per day: 14.41682409
mean anomaly at epoch: 165.8591°
orbit number at epoch: 58291

The dashed part of the orbit path shows where the satellite is in the earth's shadow,  

DLR